Showing default

VIREON-1, 68434

Orbit data source: Space-Track

VIREON-1, 68434 is a payload satellite owned by AAC ClydeSpace (UK) in SSO that was launched on Mon, 30 Mar 2026 UTC via an FALCON 9 launch vehicle from the Air Force Western Test Range (AFWTR). Payload-class satellites include a variety of spacecraft equipped with specific instruments for various scientific and technological missions. These include communications satellites like Starlink; space stations such as the ISS; scientific satellites like the Hubble; Earth observation satellites from companies like Planet Labs, Umbra, and HawkEye 360; GPS; miniature CubeSats for education and research; and military/defense satellites.

Loading next visibility...
Identifier
68434, 2026-067U
Orbit
SSO
Country
Flag of UKUK
Related business
Manufacturer
AAC ClydeSpace
Mission
Operational Commercial Imaging
Bus & Motor
CUBESAT 16U EPIC, Unknown motor
Mass
~20 kg wet, ~20 kg dry
Launch date (UTC)
2026-03-30 (6 months ago)
Launch vehicle
FALCON 9
Launch site
Air Force Western Test Range (AFWTR)
Object type
Payload
Rocket body
Debris
Shape & HBR
Box, 1.0 m
Radar Cross Section
0.100 m², Medium (>0.1 m² and < 1m²)

Expand to show TLE details & history
Last TLE update: 15 hours ago

TLE from 15 hours ago
0 VIREON-1
1 68434U 26067U   26263.45161203  .00002007  00000-0  98853-4 0  9993
2 68434  97.4697 220.8137 0002470  50.2180 309.9271 15.19114629 26403
Epoch: 2026-09-20T10:50Z
TLE epoch observation values (Epoch: 2026-09-20T10:50:19.279Z)
Latitude
-0.00009°
Longitude
58.88778°
Altitude
510.511 km
Speed
7.609 km/s
True Right ascension
14h 43m 15s
True Declination
0° 00' 00"
Sunlit
Object was in daylight at epoch
Visualization orbit readout
Latitude
Unknown
Longitude
Unknown
Altitude
Unknown
Speed
Unknown
Apparent Right ascension
Unknown
Apparent Declination
Unknown
Sunlit
N/A
Visualization observer readout
Local Sidereal Time
18:55:30
Azimuth
Unknown
Elevation
Unknown
Doppler factor
Unknown
Orbital elements
Apogee altitude
507.185 km
Perigee altitude
503.785 km
Semi-major axis
6,883.622 km
Eccentricity
0.00025
Inclination
97.4697°
RAAN
220.8137°
Arg. of periapsis
50.218°
True anomaly
309.90539°
Mean anomaly
309.9271°
Eccentric anomaly
309.91625°
Mean motion
3.8003 °/min
Orbital period
94.73 mins
BSTAR
0.000098853
Loading maneuver chart data...
Computing Atmospheric mass density...
Loading historical data...
Loading historical data...
Loading historical data...
Loading historical data...
Loading historical data...
Loading historical data...
Loading historical data...

Documentation

Showing up to 5 results
|